Zurück zum Katalog

HULIANWANG DIGUI-110

AktivKommunikationLEO
NORAD 66920·PAYLOAD·🇨🇳 China

Gestartet Dec 6, 2025 von Wenchang Space Launch Site

Loading…

Nächste Überflüge (nächste 24 Stunden)

TLE

AktuellSource: Space-Track

Epoche: Sep 14, 2026, 01:42 UTC

1 66920U 25285F   26257.07146526 -.00000092  00000-0  70055-4 0  9991
2 66920  50.0099 187.1965 0000179 263.3378  96.7474 13.29329308 37887

Verfolge HULIANWANG DIGUI-110 in Echtzeit mit AllMySat

Download on the App Store